Content
SEND FEEDBACK

Daily
Averages
Monthly
Summary
United States of America

NEWFANE, VERMONT


Home > North America > United States > Vermont
Elevation: 686 feet     Latitude: 42 59N     Longitude: 072 39W

WEATHER
 
SELECT A DAY
Number of Records: 445,566;   Date Range: 1/1/95 - 7/29/14
 
SHARE

PRINT THIS DATA

[ ← Previous Day ]
WEATHER ALMANAC - JUNE 17, 2014
[ Next Day → ]
[ °C ]   °F
Weather ElementAverageHighLow
Temperature72.3 °F87.8 °F (4:15 pm)57.2 °F (4:55 am)
Dewpoint55 °F60.8 °F (11:55 am)48.2 °F (5:15 am)
Humidity56.6 %77 % (4:15 am)29 % (4:55 pm)
Barometer29.98 in30.07 in (7:35 am)29.82 in (11:55 pm)
Wind Speed2.5 mph11.5 mph (4:35 pm)
Wind Gust18.4 mph (4:35 pm)
Weather ElementAverage
Visibility9.6 mi
Wind DirectionE (92.5 °)

Weather ElementTotal
Precipitation---
Cooling Degree Days7.5 (Base 65)
Growing Degree Days22.5 (Base 50)
Averaged from 69 records on June 17, 2014
WEATHER CONDITIONS BREAKOUT
WIND DIRECTION BREAKOUT
WEATHER BY HOUR - JUNE 17, 2014
[ °C ]   °F
Local TimeTemperatureDewpointHumidityBarometerVisibilityWind DirectionWind SpeedGust SpeedPrecipitationEventsConditions
12:35 AM60.8 °F50.0 °F68 %30.05 in10.0 miCalmClear
12:55 AM60.8 °F50.0 °F68 %30.06 in10.0 miCalmScattered Clouds
1:15 AM60.8 °F51.8 °F72 %30.06 in10.0 miSSW (200°)3.5 mphMostly Cloudy
1:35 AM62.6 °F51.8 °F68 %30.06 in9.0 miCalmMostly Cloudy
1:55 AM62.6 °F51.8 °F68 %30.05 in10.0 miCalmScattered Clouds
2:15 AM62.6 °F51.8 °F68 %30.05 in10.0 miCalmMostly Cloudy
2:35 AM62.6 °F51.8 °F68 %30.05 in10.0 miCalmMostly Cloudy
2:55 AM62.6 °F51.8 °F68 %30.05 in10.0 miCalmMostly Cloudy
3:15 AM62.6 °F51.8 °F68 %30.04 in10.0 miCalmMostly Cloudy
3:35 AM60.8 °F51.8 °F72 %30.04 in10.0 miCalmScattered Clouds
3:55 AM60.8 °F51.8 °F72 %30.05 in10.0 miCalmPartly Cloudy
4:15 AM59.0 °F51.8 °F77 %30.03 in10.0 miCalmPartly Cloudy
4:35 AM59.0 °F50.0 °F72 %30.04 in10.0 miCalmClear
4:55 AM57.2 °F50.0 °F77 %30.04 in10.0 miCalmClear
5:15 AM57.2 °F48.2 °F72 %30.04 in10.0 miCalmClear
5:35 AM57.2 °F48.2 °F72 %30.03 in10.0 miCalmClear
5:55 AM57.2 °F48.2 °F72 %30.04 in10.0 miCalmClear
6:15 AM57.2 °F48.2 °F72 %30.05 in9.0 miCalmClear
6:35 AM59.0 °F50.0 °F72 %30.05 in10.0 miCalmClear
7:15 AM62.6 °F51.8 °F68 %30.06 in10.0 miCalmClear
7:35 AM62.6 °F51.8 °F68 %30.07 in10.0 miCalmClear
7:55 AM64.4 °F51.8 °F64 %30.07 in10.0 miCalmClear
8:15 AM66.2 °F51.8 °F60 %30.07 in10.0 miCalmClear
8:55 AM68.0 °F51.8 °F56 %30.07 in10.0 miCalmClear
9:15 AM69.8 °F53.6 °F56 %30.07 in10.0 miCalmClear
9:35 AM69.8 °F53.6 °F56 %30.07 in10.0 miCalmClear
9:55 AM71.6 °F53.6 °F53 %30.06 in9.0 miCalmClear
10:15 AM71.6 °F55.4 °F57 %30.06 in10.0 miCalmClear
10:35 AM75.2 °F57.2 °F53 %30.05 in10.0 miCalmClear
10:55 AM75.2 °F57.2 °F53 %30.04 in10.0 miCalmClear
11:15 AM77.0 °F57.2 °F50 %30.04 in7.0 miWSW (250°)3.5 mphClear
11:35 AM78.8 °F59.0 °F51 %30.03 in10.0 miCalmClear
11:55 AM80.6 °F60.8 °F51 %30.02 in10.0 miWest (260°)8.1 mphClear
12:15 PM80.6 °F60.8 °F51 %30.02 in10.0 miSSW (210°)8.1 mphClear
12:35 PM80.6 °F60.8 °F51 %30.01 in8.0 miWNW (300°)4.6 mphClear
12:55 PM82.4 °F60.8 °F48 %30.01 in10.0 miSW (230°)5.8 mphPartly Cloudy
1:15 PM82.4 °F60.8 °F48 %30.00 in10.0 miWest (270°)5.8 mphPartly Cloudy
1:35 PM84.2 °F60.8 °F45 %29.99 in3.0 miSSW (210°)8.1 mphClear
1:55 PM84.2 °F60.8 °F45 %29.98 in10.0 miCalmClear
2:15 PM86.0 °F60.8 °F43 %29.97 in10.0 miSW (230°)5.8 mphClear
2:35 PM84.2 °F60.8 °F45 %29.97 in8.0 miSouth (180°)6.9 mphScattered Clouds
2:55 PM84.2 °F60.8 °F45 %29.96 in6.0 miSW (230°)8.1 mphMostly Cloudy
3:15 PM84.2 °F59.0 °F42 %29.96 in10.0 miWest (260°)4.6 mphMostly Cloudy
3:35 PM86.0 °F57.2 °F37 %29.95 in10.0 miWSW (250°)8.1 mphPartly Cloudy
3:55 PM86.0 °F57.2 °F37 %29.95 in10.0 miSW (220°)8.1 mphClear
4:15 PM87.8 °F55.4 °F33 %29.94 in10.0 miWest (270°)8.1 mphClear
4:35 PM87.8 °F53.6 °F31 %29.94 in10.0 miSW (220°)11.5 mph18.4 mphClear
4:55 PM87.8 °F51.8 °F29 %29.94 in10.0 miWest (270°)8.1 mphClear
5:15 PM86.0 °F51.8 °F31 %29.93 in10.0 miWNW (300°)5.8 mphClear
5:35 PM86.0 °F51.8 °F31 %29.93 in10.0 miWest (260°)5.8 mphClear
5:55 PM86.0 °F53.6 °F33 %29.94 in10.0 miWest (280°)6.9 mphClear
6:15 PM84.2 °F53.6 °F35 %29.93 in10.0 miWest (280°)6.9 mphClear
6:35 PM84.2 °F55.4 °F37 %29.93 in10.0 miWest (270°)3.5 mphClear
6:55 PM82.4 °F55.4 °F39 %29.92 in10.0 miCalmClear
7:15 PM78.8 °F59.0 °F51 %29.90 in6.0 miCalmClear
7:35 PM77.0 °F59.0 °F54 %29.88 in10.0 miCalmClear
7:55 PM75.2 °F59.0 °F57 %29.87 in10.0 miSW (220°)4.6 mphClear
8:15 PM75.2 °F59.0 °F57 %29.87 in10.0 miSouth (180°)3.5 mphClear
8:35 PM71.6 °F57.2 °F60 %29.88 in10.0 miCalmClear
8:55 PM71.6 °F57.2 °F60 %29.88 in10.0 miCalmClear
9:15 PM69.8 °F55.4 °F60 %29.87 in10.0 miCalmClear
9:35 PM69.8 °F57.2 °F64 %29.88 in10.0 miCalmClear
9:55 PM69.8 °F57.2 °F64 %29.88 in10.0 miCalmClear
10:15 PM68.0 °F55.4 °F64 %29.88 in10.0 miCalmClear
10:35 PM68.0 °F57.2 °F68 %29.86 in10.0 miCalmClear
10:55 PM68.0 °F57.2 °F68 %29.86 in10.0 miCalmClear
11:15 PM68.0 °F57.2 °F68 %29.84 in10.0 miSouth (180°)4.6 mphClear
11:35 PM69.8 °F59.0 °F68 %29.84 in10.0 miSouth (170°)6.9 mphClear
11:55 PM73.4 °F60.8 °F65 %29.82 in10.0 miSouth (180°)9.2 mphClear
Hourly data recorded from KEEN, located miles away from Newfane, Vermont







STORIES FROM OUR PARTNERS